Location: Aldenham
(51.6667°N, 0.3500°W)
Time: 18:06:56
(UTC+00:00)

Explorer 7 - Pass Details

Date: 21 February 2026
Orbit: 430 x 542 km, 50.2° (Epoch: 8 March)

Event Time Altitude Azimuth Distance (km) Brightness Sun altitude
Rises 20:04:53 0° 276° (W) 2,536 11.5 -25.0°
Reaches altitude 10° 20:08:09 10° 245° (WSW) 1,683 9.9 -25.5°
Maximum altitude 20:09:43 12° 221° (SW) 1,559 9.4 -25.7°
Enters shadow 20:10:16 12° 212° (SSW) 1,580 9.3 -25.8°
Drops below altitude 10° 20:11:19 10° 196° (SSW) 1,708 - -25.9°
Sets 20:14:41 0° 166° (SSE) 2,618 - -26.4°
